Location: Sevilla
(37.3933°N, 5.9839°W)
Time: 05:31:27
(UTC+02:00)

Vanguard 3 - Pass Details

Date: 30 June 2024
Orbit: 508 x 3231 km, 33.4° (Epoch: 15 July)

Event Time Altitude Azimuth Distance (km) Brightness Sun altitude
Rises 05:22:26 0° 198° (SSW) 7,108 - -16.8°
Exits shadow 05:27:01 - 190° (S) 6,419 11.2 -16.2°
Reaches altitude 10° 05:28:53 10° 186° (S) 6,151 11.1 -16.0°
Maximum altitude 05:42:10 23° 143° (SE) 4,802 11.0 -14.1°
Drops below altitude 10° 05:53:19 10° 98° (E) 5,153 11.8 -12.5°
Sets 05:57:54 0° 86° (E) 5,761 12.4 -11.9°
